Location: ???????
(55.3754°N, 39.3545°E)
Time: 20:58:52
(UTC+00:00)

Cosmos 1758 Rocket - Pass Details

Date: 14 April 2026
Orbit: 595 x 628 km, 82.5° (Epoch: 16 May)

Event Time Altitude Azimuth Distance (km) Brightness Sun altitude
Rises 22:16:13 0° 346° (NNW) 2,854 8.0 -24.0°
Reaches altitude 10° 22:18:26 10° 344° (NNW) 1,946 6.9 -23.9°
Enters shadow 22:22:27 68° 290° (WNW) 649 3.5 -23.8°
